Location: Altleiningen
(49.5078°N, 8.0741°E)
Time: 00:07:34
(UTC+00:00)

Cosmos 1066 Rocket - Pass Details

Date: 03 March 2021
Orbit: 799 x 894 km, 81.2° (Epoch: 13 April)

Event Time Altitude Azimuth Distance (km) Brightness Sun altitude
Rises 19:34:54 0° 347° (NNW) 3,435 7.8 -23.4°
Reaches altitude 10° 19:37:19 10° 346° (NNW) 2,509 7.0 -23.8°
Maximum altitude 19:43:02 80° 261° (W) 894 4.3 -24.7°
Enters shadow 19:45:47 33° 178° (S) 1,446 5.2 -25.1°
